カタログに戻る

STARLINK-30387

運用中通信VLEO
NORAD 57788·PAYLOAD·🇺🇸 United States

打ち上げ Sep 4, 2023 から Cape Canaveral Space Force Station

Loading…

次のパス (今後24時間)

TLE

最新Source: CelesTrak SupGP

元期: Sep 14, 2026, 21:21 UTC

1 57788C 23134T   26257.89006944  .00005169  00000+0  18723-3 0  2571
2 57788  43.0022 194.5964 0001310 260.1314 181.3341 15.27576065    14

AllMySatでSTARLINK-30387をリアルタイム追跡

Download on the App Store